FW0822 Weather Reports


time (UTC)temp
C
wind
direction
speed
KPH
gust
KPH
rain 1hr
cm
rain 24hr
cm
rain mn
cm
humidity
%
barometer
mb
20260504184600 27 207 0.0 0.0 0.00 0.00 0.00 35 1015.8
20260504183053 26 257 0.0 0.0 0.00 0.00 0.00 34 1015.9
20260504181542 26 256 0.0 0.0 0.00 0.00 0.00 34 1016.2
20260504180042 26 211 0.0 0.0 0.00 0.00 0.00 36 1016.2
20260504174539 25 228 0.0 1.6 0.00 0.00 0.00 36 1016.3
20260504173034 25 240 0.0 0.0 0.00 0.00 0.00 35 1016.6
20260504171540 23 212 0.0 0.0 0.00 0.00 0.00 38 1016.7
20260504120124 7 73 0.0 0.0 0.00 0.00 0.00 82 1018.2
20260504081503 8 219 0.0 0.0 0.00 0.00 0.00 71 1018.2
20260504070104 8 219 0.0 0.0 0.00 0.00 0.00 68 1017.8
20260504044559 10 219 0.0 0.0 0.00 0.00 0.00 61 1018.2
20260504043154 10 219 0.0 0.0 0.00 0.00 0.00 61 1018.1
20260504041554 10 219 0.0 0.0 0.00 0.00 0.00 60 1018.2
20260504040054 10 219 0.0 0.0 0.00 0.00 0.00 60 1018.1
20260504034608 10 219 0.0 0.0 0.00 0.00 0.00 59 1018.3
20260504033053 10 219 0.0 0.0 0.00 0.00 0.00 59 1018.2
20260504031553 10 219 0.0 0.0 0.00 0.00 0.00 58 1018.1
20260504030052 11 219 0.0 0.0 0.00 0.00 0.00 57 1018.4
20260504024552 11 219 0.0 0.0 0.00 0.00 0.00 57 1018.1
20260504023052 11 219 0.0 0.0 0.00 0.00 0.00 54 1018.1
20260504021554 12 219 0.0 0.0 0.00 0.00 0.00 54 1017.9
20260504020056 12 219 0.0 0.0 0.00 0.00 0.00 52 1017.9
20260504014606 12 219 0.0 0.0 0.00 0.00 0.00 50 1017.7
20260504013053 13 219 0.0 0.0 0.00 0.00 0.00 48 1017.8
20260504011557 14 219 0.0 0.0 0.00 0.00 0.00 45 1017.8
20260504010058 15 219 0.0 0.0 0.00 0.00 0.00 44 1017.6
20260504004550 15 219 0.0 0.0 0.00 0.00 0.00 42 1017.4
20260504003053 16 219 0.0 0.0 0.00 0.00 0.00 40 1017.2
20260504001549 16 219 0.0 0.0 0.00 0.00 0.00 38 1017.1
20260504000049 17 219 0.0 0.0 0.00 0.00 0.00 36 1017.0
20260503234550 17 219 0.0 0.0 0.00 0.00 0.00 34 1017.1
20260503233048 17 219 0.0 0.0 0.00 0.00 0.00 33 1017.0
20260503231548 17 217 0.0 0.0 0.00 0.00 0.00 32 1017.1
20260503230045 17 227 0.0 0.0 0.00 0.00 0.00 31 1017.1
20260503224545 17 243 0.0 0.0 0.00 0.00 0.00 31 1017.2
20260503223044 17 257 0.0 0.0 0.00 0.00 0.00 30 1017.4
20260503221542 17 216 0.0 0.0 0.00 0.00 0.00 31 1017.4
20260503220048 17 217 0.0 6.4 0.00 0.00 0.00 30 1017.6
20260503214540 17 219 0.0 4.8 0.00 0.00 0.00 30 1017.7
20260503213040 17 221 0.0 1.6 0.00 0.00 0.00 30 1018.0
20260503211538 17 243 0.0 3.2 0.00 0.00 0.00 30 1018.0
20260503210040 17 196 0.0 0.0 0.00 0.00 0.00 29 1017.9
20260503204539 17 237 0.0 0.0 0.00 0.00 0.00 30 1017.8
20260503203038 17 214 0.0 0.0 0.00 0.00 0.00 30 1018.1
20260503201540 18 227 0.0 0.0 0.00 0.00 0.00 29 1018.4
20260503200043 18 245 0.0 1.6 0.00 0.00 0.00 30 1018.6
20260503194539 18 218 0.0 4.8 0.00 0.00 0.00 28 1018.6
20260503193041 20 220 0.0 0.0 0.00 0.00 0.00 27 1018.8
20260503191536 20 223 0.0 0.0 0.00 0.00 0.00 26 1019.2
20260503190034 20 256 0.0 3.2 0.00 0.00 0.00 27 1019.4